Lakeville, MN

8:20 PM CST on January 20, 2017 (GMT -0600)
Airlake

Weather History for KLVN - May, 2013

Change the Weather History Date:

Friday, May 17, 2013

  Actual Average Record
Temperature  
Mean Temperature 58 °F -  
Max Temperature 64 °F 73 °F 92 °F (1987)
Min Temperature 51 °F 48 °F 33 °F (1973)
Degree Days  
Heating Degree Days 8    
Growing Degree Days 8 (Base 50)    
Moisture  
Dew Point 51 °F    
Average Humidity 88    
Maximum Humidity 100    
Minimum Humidity 34    
Precipitation  
Precipitation 0.00 in - - ()
Sea Level Pressure  
Sea Level Pressure 29.96 in    
Wind  
Wind Speed 10 mph (East)    
Max Wind Speed 16 mph    
Max Gust Speed 20 mph    
Visibility 8 miles    
Events Rain    
Averages and records for this station are not official NWS values.
T = Trace of Precipitation, MM = Missing Value Source: NWS Daily Summary

Daily Weather History Graph

Daily Weather History Graph

Search for Another Location

Airport or City:

Trip Planner

Search our weather history database for the weather conditions in past years. The results will help you decide how hot, cold, wet, or windy it might be!

Date:

Astronomy

May. 17, 2013 Rise Set
Actual Time 5:42 AM CDT 8:36 PM CDT
Civil Twilight 5:08 AM CDT 9:11 PM CDT
Nautical Twilight 4:24 AM CDT 9:54 PM CDT
Astronomical Twilight 3:33 AM CDT 10:46 PM CDT
Moon 12:22 PM CDT (5/17) 1:23 AM CDT (5/17)
Length of Visible Light 16h 02m
Length of Day
14h 54m
Waxing Crescent, 45% of the Moon is Illuminated
May 17
Waxing Crescent
May 17
First Quarter
May 24
Full
May 31
Last Quarter
Jun 8
New

Hourly Weather History & Observations

Time (CDT) Temp. Dew Point Humidity Pressure Visibility Wind Dir Wind Speed Gust Speed Precip Events Conditions
12:14 AM 64.4 °F 35.6 °F 34% 29.90 in 10.0 mi ENE 11.5 mph - N/A   Light Drizzle
12:33 AM 64.4 °F 35.6 °F 34% 29.89 in 10.0 mi ENE 9.2 mph - N/A   Scattered Clouds
12:53 AM 64.4 °F 35.6 °F 34% 29.90 in 10.0 mi NE 6.9 mph - N/A   Mostly Cloudy
1:14 AM 64.4 °F 37.4 °F 37% 29.91 in 10.0 mi NE 4.6 mph - N/A Rain Light Rain
1:33 AM 60.8 °F 42.8 °F 52% 29.90 in 10.0 mi ENE 6.9 mph - N/A Rain Light Rain
1:53 AM 60.8 °F 42.8 °F 52% 29.90 in 10.0 mi ENE 6.9 mph - N/A   Overcast
2:13 AM 59.0 °F 44.6 °F 59% 29.90 in 10.0 mi NE 6.9 mph - N/A Rain Rain
2:33 AM 59.0 °F 46.4 °F 63% 29.91 in 10.0 mi East 3.5 mph - N/A   Light Drizzle
2:53 AM 57.2 °F 48.2 °F 72% 29.91 in 10.0 mi East 3.5 mph - N/A Rain Light Rain
3:13 AM 55.4 °F 50.0 °F 82% 29.91 in 10.0 mi ESE 3.5 mph - N/A Rain Rain
3:33 AM 55.4 °F 50.0 °F 82% 29.91 in 10.0 mi SE 5.8 mph - N/A Rain Light Rain
3:54 AM 57.2 °F 51.8 °F 82% 29.92 in 10.0 mi East 11.5 mph - N/A   Light Drizzle
4:13 AM 57.2 °F 51.8 °F 82% 29.92 in 10.0 mi ESE 11.5 mph 18.4 mph N/A   Overcast
4:33 AM 57.2 °F 51.8 °F 82% 29.93 in 10.0 mi ESE 10.4 mph - N/A   Drizzle
4:54 AM 57.2 °F 51.8 °F 82% 29.94 in 10.0 mi SE 9.2 mph 19.6 mph N/A Rain Rain
5:13 AM 55.4 °F 51.8 °F 88% 29.95 in 7.0 mi SE 6.9 mph - N/A Rain Light Rain
5:33 AM 53.6 °F 51.8 °F 94% 29.93 in 4.0 mi ESE 13.8 mph 19.6 mph N/A Rain Rain
5:54 AM 53.6 °F 51.8 °F 94% 29.94 in 10.0 mi ESE 15.0 mph 19.6 mph N/A   Overcast
6:13 AM 53.6 °F 51.8 °F 94% 29.94 in 10.0 mi ESE 12.7 mph 18.4 mph N/A   Overcast
6:33 AM 53.6 °F 51.8 °F 94% 29.95 in 10.0 mi ESE 13.8 mph 19.6 mph N/A   Overcast
7:13 AM 53.6 °F 50.0 °F 88% 29.96 in 10.0 mi East 10.4 mph - N/A   Overcast
7:33 AM 53.6 °F 50.0 °F 88% 29.96 in 10.0 mi East 11.5 mph - N/A   Light Drizzle
7:53 AM 51.8 °F 50.0 °F 94% 29.96 in 10.0 mi East 12.7 mph - N/A   Overcast
8:14 AM 53.6 °F 50.0 °F 88% 29.96 in 10.0 mi East 13.8 mph - N/A   Overcast
8:33 AM 51.8 °F 50.0 °F 94% 29.97 in 10.0 mi East 15.0 mph 18.4 mph N/A   Overcast
8:53 AM 53.6 °F 50.0 °F 88% 29.96 in 10.0 mi East 15.0 mph - N/A   Overcast
9:14 AM 53.6 °F 50.0 °F 88% 29.97 in 10.0 mi East 13.8 mph - N/A   Overcast
9:33 AM 53.6 °F 51.8 °F 94% 29.97 in 10.0 mi East 16.1 mph - N/A   Overcast
9:53 AM 53.6 °F 50.0 °F 88% 29.99 in 10.0 mi East 12.7 mph - N/A   Overcast
10:13 AM 53.6 °F 50.0 °F 88% 29.98 in 10.0 mi ESE 10.4 mph - N/A   Overcast
10:33 AM 53.6 °F 51.8 °F 94% 29.99 in 10.0 mi East 12.7 mph - N/A   Overcast
10:53 AM 53.6 °F 51.8 °F 94% 29.99 in 10.0 mi ESE 11.5 mph - N/A   Overcast
11:13 AM 55.4 °F 51.8 °F 88% 29.99 in 10.0 mi East 12.7 mph - N/A   Overcast
11:33 AM 55.4 °F 51.8 °F 88% 29.99 in 10.0 mi East 11.5 mph - N/A   Overcast
11:54 AM 55.4 °F 51.8 °F 88% 29.99 in 10.0 mi East 10.4 mph - N/A Rain Light Rain
12:13 PM 53.6 °F 51.8 °F 94% 29.99 in 10.0 mi East 10.4 mph - N/A   Light Drizzle
12:33 PM 53.6 °F 51.8 °F 94% 29.99 in 5.0 mi ESE 12.7 mph - N/A Rain Rain
12:54 PM 53.6 °F 53.6 °F 100% 29.99 in 7.0 mi East 10.4 mph - N/A Rain Rain
1:13 PM 53.6 °F 53.6 °F 100% 30.00 in 5.0 mi ESE 11.5 mph - N/A Rain Light Rain
1:33 PM 53.6 °F 53.6 °F 100% 30.00 in 4.0 mi East 15.0 mph - N/A Rain Light Rain
2:13 PM 53.6 °F 51.8 °F 94% 29.99 in 10.0 mi East 12.7 mph 17.3 mph N/A   Light Drizzle
2:34 PM 51.8 °F 51.8 °F 100% 29.99 in 4.0 mi East 13.8 mph - N/A Rain Rain
2:53 PM 51.8 °F 51.8 °F 100% 30.00 in 3.0 mi East 13.8 mph - N/A Rain Rain
3:13 PM 51.8 °F 51.8 °F 100% 30.00 in 4.0 mi East 9.2 mph - N/A Rain Light Rain
3:34 PM 53.6 °F 51.8 °F 94% 29.99 in 2.5 mi East 9.2 mph - N/A Rain Rain
3:53 PM 53.6 °F 53.6 °F 100% 29.98 in 3.0 mi East 13.8 mph - N/A Rain Rain
4:13 PM 53.6 °F 53.6 °F 100% 29.97 in 4.0 mi East 11.5 mph - N/A Rain Rain
4:34 PM 53.6 °F 53.6 °F 100% 29.96 in 7.0 mi East 13.8 mph 17.3 mph N/A   Overcast
4:53 PM 53.6 °F 53.6 °F 100% 29.97 in 7.0 mi East 11.5 mph - N/A   Overcast
5:13 PM 53.6 °F 53.6 °F 100% 29.97 in 10.0 mi East 12.7 mph - N/A   Overcast
5:33 PM 55.4 °F 53.6 °F 94% 29.97 in 10.0 mi East 11.5 mph - N/A   Overcast
5:53 PM 55.4 °F 53.6 °F 94% 29.97 in 10.0 mi East 11.5 mph - N/A   Overcast
6:14 PM 55.4 °F 53.6 °F 94% 29.96 in 7.0 mi East 10.4 mph - N/A   Overcast
6:33 PM 55.4 °F 53.6 °F 94% 29.96 in 10.0 mi East 11.5 mph - N/A   Overcast
6:53 PM 55.4 °F 53.6 °F 94% 29.96 in 10.0 mi East 11.5 mph - N/A   Overcast
7:14 PM 55.4 °F 53.6 °F 94% 29.95 in 7.0 mi East 10.4 mph - N/A   Overcast
7:33 PM 55.4 °F 53.6 °F 94% 29.95 in 7.0 mi East 11.5 mph - N/A   Overcast
7:53 PM 55.4 °F 53.6 °F 94% 29.96 in 5.0 mi East 10.4 mph - N/A   Overcast
8:14 PM 55.4 °F 53.6 °F 94% 29.95 in 4.0 mi East 11.5 mph - N/A   Overcast
8:33 PM 55.4 °F 53.6 °F 94% 29.96 in 5.0 mi East 11.5 mph - N/A   Overcast
8:53 PM 55.4 °F 53.6 °F 94% 29.96 in 5.0 mi East 11.5 mph - N/A   Overcast
9:14 PM 55.4 °F 55.4 °F 100% 29.96 in 4.0 mi East 11.5 mph - N/A   Overcast
9:33 PM 55.4 °F 55.4 °F 100% 29.96 in 4.0 mi East 11.5 mph - N/A   Overcast
9:53 PM 55.4 °F 55.4 °F 100% 29.97 in 4.0 mi East 10.4 mph - N/A   Overcast
10:13 PM 55.4 °F 55.4 °F 100% 29.98 in 4.0 mi East 10.4 mph - N/A   Overcast
10:33 PM 55.4 °F 55.4 °F 100% 29.98 in 4.0 mi ESE 11.5 mph - N/A   Overcast
10:53 PM 55.4 °F 55.4 °F 100% 29.97 in 4.0 mi ESE 11.5 mph - N/A   Overcast
11:13 PM 55.4 °F 55.4 °F 100% 29.97 in 4.0 mi East 10.4 mph - N/A   Overcast
11:33 PM 55.4 °F 55.4 °F 100% 29.97 in 4.0 mi ESE 9.2 mph - N/A   Mostly Cloudy
11:54 PM 55.4 °F 53.6 °F 94% 29.97 in 4.0 mi East 9.2 mph - N/A   Scattered Clouds